Year,Month,Day,Hour,Minute,Value (Times are PST for temperature in C)
2009,09,12,00,00,15.50
2009,09,12,00,01,15.50
2009,09,12,00,02,15.50
2009,09,12,00,03,15.40
2009,09,12,00,04,15.40
2009,09,12,00,05,15.30
2009,09,12,00,06,15.30
2009,09,12,00,07,15.30
2009,09,12,00,08,15.20
2009,09,12,00,09,15.20
2009,09,12,00,10,15.20
2009,09,12,00,11,15.10
2009,09,12,00,12,15.10
2009,09,12,00,13,15.10
2009,09,12,00,14,15.10
2009,09,12,00,15,15.10
2009,09,12,00,16,15.10
2009,09,12,00,17,15.10
2009,09,12,00,18,15.20
2009,09,12,00,19,15.20
2009,09,12,00,20,15.20
2009,09,12,00,21,15.20
2009,09,12,00,22,15.20
2009,09,12,00,23,15.20
2009,09,12,00,24,15.20
2009,09,12,00,25,15.20
2009,09,12,00,26,15.20
2009,09,12,00,27,15.30
2009,09,12,00,28,15.30
2009,09,12,00,29,15.30
2009,09,12,00,30,15.30
2009,09,12,00,31,15.30
2009,09,12,00,32,15.30
2009,09,12,00,33,15.30
2009,09,12,00,34,15.30
2009,09,12,00,35,15.30
2009,09,12,00,36,15.40
2009,09,12,00,37,15.40
2009,09,12,00,38,15.50
2009,09,12,00,39,15.50
2009,09,12,00,40,15.60
2009,09,12,00,41,15.60
2009,09,12,00,42,15.70
2009,09,12,00,43,15.70
2009,09,12,00,44,15.70
2009,09,12,00,45,15.80
2009,09,12,00,46,15.80
2009,09,12,00,47,15.80
2009,09,12,00,48,15.80
2009,09,12,00,49,15.80
2009,09,12,00,50,15.80
2009,09,12,00,51,15.80
2009,09,12,00,52,15.80
2009,09,12,00,53,15.80
2009,09,12,00,54,15.80
2009,09,12,00,55,15.80
2009,09,12,00,56,15.80
2009,09,12,00,57,15.80
2009,09,12,00,58,15.80
2009,09,12,00,59,15.80
2009,09,12,01,00,15.70
2009,09,12,01,01,15.70
2009,09,12,01,02,15.70
2009,09,12,01,03,15.60
2009,09,12,01,04,15.60
2009,09,12,01,05,15.60
2009,09,12,01,06,15.50
2009,09,12,01,07,15.50
2009,09,12,01,08,15.40
2009,09,12,01,09,15.40
2009,09,12,01,10,15.30
2009,09,12,01,11,15.30
2009,09,12,01,12,15.30
2009,09,12,01,13,15.20
2009,09,12,01,14,15.20
2009,09,12,01,15,15.20
2009,09,12,01,16,15.10
2009,09,12,01,17,15.10
2009,09,12,01,18,15.10
2009,09,12,01,19,15.10
2009,09,12,01,20,15.10
2009,09,12,01,21,15.10
2009,09,12,01,22,15.10
2009,09,12,01,23,15.10
2009,09,12,01,24,15.10
2009,09,12,01,25,15.10
2009,09,12,01,26,15.10
2009,09,12,01,27,15.10
2009,09,12,01,28,15.20
2009,09,12,01,29,15.20
2009,09,12,01,30,15.30
2009,09,12,01,31,15.30
2009,09,12,01,32,15.30
2009,09,12,01,33,15.30
2009,09,12,01,34,15.30
2009,09,12,01,35,15.30
2009,09,12,01,36,15.30
2009,09,12,01,37,15.30
2009,09,12,01,38,15.30
2009,09,12,01,39,15.30
2009,09,12,01,40,15.30
2009,09,12,01,41,15.30
2009,09,12,01,42,15.30
2009,09,12,01,43,15.30
2009,09,12,01,44,15.30
2009,09,12,01,45,15.30
2009,09,12,01,46,15.30
2009,09,12,01,47,15.30
2009,09,12,01,48,15.30
2009,09,12,01,49,15.30
2009,09,12,01,50,15.30
2009,09,12,01,51,15.30
2009,09,12,01,52,15.30
2009,09,12,01,53,15.30
2009,09,12,01,54,15.30
2009,09,12,01,55,15.30
2009,09,12,01,56,15.30
2009,09,12,01,57,15.30
2009,09,12,01,58,15.30
2009,09,12,01,59,15.30
2009,09,12,02,00,15.40
2009,09,12,02,01,15.40
2009,09,12,02,02,15.50
2009,09,12,02,03,15.50
2009,09,12,02,04,15.60
2009,09,12,02,05,15.60
2009,09,12,02,06,15.70
2009,09,12,02,07,15.80
2009,09,12,02,08,15.80
2009,09,12,02,09,15.90
2009,09,12,02,10,16.00
2009,09,12,02,11,16.10
2009,09,12,02,12,16.10
2009,09,12,02,13,16.10
2009,09,12,02,14,16.10
2009,09,12,02,15,16.00
2009,09,12,02,16,15.90
2009,09,12,02,17,15.80
2009,09,12,02,18,15.80
2009,09,12,02,19,15.80
2009,09,12,02,20,15.60
2009,09,12,02,21,15.50
2009,09,12,02,22,15.40
2009,09,12,02,23,15.30
2009,09,12,02,24,15.20
2009,09,12,02,25,15.10
2009,09,12,02,26,15.00
2009,09,12,02,27,14.90
2009,09,12,02,28,14.80
2009,09,12,02,29,14.70
2009,09,12,02,30,14.50
2009,09,12,02,31,14.40
2009,09,12,02,32,14.20
2009,09,12,02,33,14.20
2009,09,12,02,34,14.10
2009,09,12,02,35,14.00
2009,09,12,02,36,14.00
2009,09,12,02,37,14.00
2009,09,12,02,38,14.00
2009,09,12,02,39,14.00
2009,09,12,02,40,14.00
2009,09,12,02,41,14.10
2009,09,12,02,42,14.10
2009,09,12,02,43,14.10
2009,09,12,02,44,14.20
2009,09,12,02,45,14.20
2009,09,12,02,46,14.20
2009,09,12,02,47,14.20
2009,09,12,02,48,14.30
2009,09,12,02,49,14.30
2009,09,12,02,50,14.30
2009,09,12,02,51,14.30
2009,09,12,02,52,14.30
2009,09,12,02,53,14.30
2009,09,12,02,54,14.30
2009,09,12,02,55,14.30
2009,09,12,02,56,14.20
2009,09,12,02,57,14.20
2009,09,12,02,58,14.20
2009,09,12,02,59,14.20
2009,09,12,03,00,14.20
2009,09,12,03,01,14.20
2009,09,12,03,02,14.20
2009,09,12,03,03,14.20
2009,09,12,03,04,14.30
2009,09,12,03,05,14.30
2009,09,12,03,06,14.30
2009,09,12,03,07,14.30
2009,09,12,03,08,14.30
2009,09,12,03,09,14.30
2009,09,12,03,10,14.30
2009,09,12,03,11,14.30
2009,09,12,03,12,14.30
2009,09,12,03,13,14.30
2009,09,12,03,14,14.30
2009,09,12,03,15,14.30
2009,09,12,03,16,14.30
2009,09,12,03,17,14.20
2009,09,12,03,18,14.20
2009,09,12,03,19,14.20
2009,09,12,03,20,14.20
2009,09,12,03,21,14.20
2009,09,12,03,22,14.20
2009,09,12,03,23,14.20
2009,09,12,03,24,14.20
2009,09,12,03,25,14.10
2009,09,12,03,26,14.10
2009,09,12,03,27,14.00
2009,09,12,03,28,14.00
2009,09,12,03,29,13.90
2009,09,12,03,30,13.90
2009,09,12,03,31,13.80
2009,09,12,03,32,13.70
2009,09,12,03,33,13.70
2009,09,12,03,34,13.70
2009,09,12,03,35,13.70
2009,09,12,03,36,13.60
2009,09,12,03,37,13.60
2009,09,12,03,38,13.60
2009,09,12,03,39,13.50
2009,09,12,03,40,13.50
2009,09,12,03,41,13.50
2009,09,12,03,42,13.40
2009,09,12,03,43,13.40
2009,09,12,03,44,13.50
2009,09,12,03,45,13.40
2009,09,12,03,46,13.40
2009,09,12,03,47,13.40
2009,09,12,03,48,13.30
2009,09,12,03,49,13.30
2009,09,12,03,50,13.30
2009,09,12,03,51,13.30
2009,09,12,03,52,13.40
2009,09,12,03,53,13.40
2009,09,12,03,54,13.40
2009,09,12,03,55,13.50
2009,09,12,03,56,13.50
2009,09,12,03,57,13.50
2009,09,12,03,58,13.50
2009,09,12,03,59,13.50
2009,09,12,04,00,13.50
2009,09,12,04,01,13.50
2009,09,12,04,02,13.50
2009,09,12,04,03,13.50
2009,09,12,04,04,13.50
2009,09,12,04,05,13.50
2009,09,12,04,06,13.50
2009,09,12,04,07,13.50
2009,09,12,04,08,13.40
2009,09,12,04,09,13.40
2009,09,12,04,10,13.40
2009,09,12,04,11,13.40
2009,09,12,04,12,13.40
2009,09,12,04,13,13.40
2009,09,12,04,14,13.40
2009,09,12,04,15,13.50
2009,09,12,04,16,13.50
2009,09,12,04,17,13.50
2009,09,12,04,18,13.60
2009,09,12,04,19,13.60
2009,09,12,04,20,13.60
2009,09,12,04,21,13.70
2009,09,12,04,22,13.70
2009,09,12,04,23,13.70
2009,09,12,04,24,13.70
2009,09,12,04,25,13.70
2009,09,12,04,26,13.70
2009,09,12,04,27,13.70
2009,09,12,04,28,13.70
2009,09,12,04,29,13.70
2009,09,12,04,30,13.60
2009,09,12,04,31,13.60
2009,09,12,04,32,13.60
2009,09,12,04,33,13.60
2009,09,12,04,34,13.60
2009,09,12,04,35,13.60
2009,09,12,04,36,13.50
2009,09,12,04,37,13.50
2009,09,12,04,38,13.50
2009,09,12,04,39,13.40
2009,09,12,04,40,13.40
2009,09,12,04,41,13.30
2009,09,12,04,42,13.30
2009,09,12,04,43,13.30
2009,09,12,04,44,13.30
2009,09,12,04,45,13.30
2009,09,12,04,46,13.20
2009,09,12,04,47,13.20
2009,09,12,04,48,13.20
2009,09,12,04,49,13.20
2009,09,12,04,50,13.20
2009,09,12,04,51,13.20
2009,09,12,04,52,13.20
2009,09,12,04,53,13.20
2009,09,12,04,54,13.20
2009,09,12,04,55,13.20
2009,09,12,04,56,13.10
2009,09,12,04,57,13.10
2009,09,12,04,58,13.00
2009,09,12,04,59,13.00
2009,09,12,05,00,13.00
2009,09,12,05,01,12.90
2009,09,12,05,02,12.80
2009,09,12,05,03,12.80
2009,09,12,05,04,12.80
2009,09,12,05,05,12.70
2009,09,12,05,06,12.60
2009,09,12,05,07,12.50
2009,09,12,05,08,12.50
2009,09,12,05,09,12.40
2009,09,12,05,10,12.30
2009,09,12,05,11,12.30
2009,09,12,05,12,12.30
2009,09,12,05,13,12.30
2009,09,12,05,14,12.30
2009,09,12,05,15,12.30
2009,09,12,05,16,12.20
2009,09,12,05,17,12.20
2009,09,12,05,18,12.20
2009,09,12,05,19,12.20
2009,09,12,05,20,12.20
2009,09,12,05,21,12.10
2009,09,12,05,22,12.10
2009,09,12,05,23,12.10
2009,09,12,05,24,12.10
2009,09,12,05,25,12.10
2009,09,12,05,26,12.10
2009,09,12,05,27,12.10
2009,09,12,05,28,12.10
2009,09,12,05,29,12.10
2009,09,12,05,30,12.00
2009,09,12,05,31,12.00
2009,09,12,05,32,12.10
2009,09,12,05,33,12.10
2009,09,12,05,34,12.20
2009,09,12,05,35,12.20
2009,09,12,05,36,12.20
2009,09,12,05,37,12.20
2009,09,12,05,38,12.30
2009,09,12,05,39,12.30
2009,09,12,05,40,12.30
2009,09,12,05,41,12.30
2009,09,12,05,42,12.30
2009,09,12,05,43,12.30
2009,09,12,05,44,12.30
2009,09,12,05,45,12.30
2009,09,12,05,46,12.30
2009,09,12,05,47,12.40
2009,09,12,05,48,12.40
2009,09,12,05,49,12.40
2009,09,12,05,50,12.40
2009,09,12,05,51,12.50
2009,09,12,05,52,12.50
2009,09,12,05,53,12.50
2009,09,12,05,54,12.50
2009,09,12,05,55,12.50
2009,09,12,05,56,12.50
2009,09,12,05,57,12.50
2009,09,12,05,58,12.50
2009,09,12,05,59,12.50
2009,09,12,06,00,12.50
2009,09,12,06,01,12.50
2009,09,12,06,02,12.50
2009,09,12,06,03,12.50
2009,09,12,06,04,12.50
2009,09,12,06,05,12.50
2009,09,12,06,06,12.60
2009,09,12,06,07,12.60
2009,09,12,06,08,12.60
2009,09,12,06,09,12.70
2009,09,12,06,10,12.70
2009,09,12,06,11,12.80
2009,09,12,06,12,12.80
2009,09,12,06,13,12.80
2009,09,12,06,14,12.80
2009,09,12,06,15,12.80
2009,09,12,06,16,12.90
2009,09,12,06,17,13.00
2009,09,12,06,18,13.20
2009,09,12,06,19,13.30
2009,09,12,06,20,13.50
2009,09,12,06,21,13.60
2009,09,12,06,22,13.70
2009,09,12,06,23,13.80
2009,09,12,06,24,13.90
2009,09,12,06,25,13.90
2009,09,12,06,26,14.00
2009,09,12,06,27,14.00
2009,09,12,06,28,14.00
2009,09,12,06,29,14.10
2009,09,12,06,30,14.20
2009,09,12,06,31,14.20
2009,09,12,06,32,14.30
2009,09,12,06,33,14.30
2009,09,12,06,34,14.40
2009,09,12,06,35,14.50
2009,09,12,06,36,14.50
2009,09,12,06,37,14.50
2009,09,12,06,38,14.50
2009,09,12,06,39,14.50
2009,09,12,06,40,14.50
2009,09,12,06,41,14.50
2009,09,12,06,42,14.50
2009,09,12,06,43,14.60
2009,09,12,06,44,14.60
2009,09,12,06,45,14.60
2009,09,12,06,46,14.50
2009,09,12,06,47,14.50
2009,09,12,06,48,14.40
2009,09,12,06,49,14.40
2009,09,12,06,50,14.30
2009,09,12,06,51,14.20
2009,09,12,06,52,14.20
2009,09,12,06,53,14.20
2009,09,12,06,54,14.10
2009,09,12,06,55,14.10
2009,09,12,06,56,14.10
2009,09,12,06,57,14.00
2009,09,12,06,58,14.00
2009,09,12,06,59,14.10
2009,09,12,07,00,14.10
2009,09,12,07,01,14.10
2009,09,12,07,02,14.10
2009,09,12,07,03,14.20
2009,09,12,07,04,14.20
2009,09,12,07,05,14.30
2009,09,12,07,06,14.40
2009,09,12,07,07,14.50
2009,09,12,07,08,14.60
2009,09,12,07,09,14.60
2009,09,12,07,10,14.70
2009,09,12,07,11,14.80
2009,09,12,07,12,14.80
2009,09,12,07,13,14.90
2009,09,12,07,14,15.00
2009,09,12,07,15,15.10
2009,09,12,07,16,15.10
2009,09,12,07,17,15.20
2009,09,12,07,18,15.20
2009,09,12,07,19,15.30
2009,09,12,07,20,15.30
2009,09,12,07,21,15.30
2009,09,12,07,22,15.30
2009,09,12,07,23,15.40
2009,09,12,07,24,15.50
2009,09,12,07,25,15.60
2009,09,12,07,26,15.70
2009,09,12,07,27,15.80
2009,09,12,07,28,16.00
2009,09,12,07,29,16.10
2009,09,12,07,30,16.10
2009,09,12,07,31,16.20
2009,09,12,07,32,16.30
2009,09,12,07,33,16.30
2009,09,12,07,34,16.30
2009,09,12,07,35,16.30
2009,09,12,07,36,16.30
2009,09,12,07,37,16.30
2009,09,12,07,38,16.30
2009,09,12,07,39,16.30
2009,09,12,07,40,16.30
2009,09,12,07,41,16.30
2009,09,12,07,42,16.40
2009,09,12,07,43,16.40
2009,09,12,07,44,16.40
2009,09,12,07,45,16.40
2009,09,12,07,46,16.50
2009,09,12,07,47,16.70
2009,09,12,07,48,16.70
2009,09,12,07,49,16.80
2009,09,12,07,50,16.90
2009,09,12,07,51,16.90
2009,09,12,07,52,17.00
2009,09,12,07,53,17.00
2009,09,12,07,54,17.10
2009,09,12,07,55,17.10
2009,09,12,07,56,17.10
2009,09,12,07,57,17.10
2009,09,12,07,58,17.10
2009,09,12,07,59,17.00
2009,09,12,08,00,17.00
2009,09,12,08,01,17.10
2009,09,12,08,02,17.10
2009,09,12,08,03,17.10
2009,09,12,08,04,17.20
2009,09,12,08,05,17.30
2009,09,12,08,06,17.40
2009,09,12,08,07,17.50
2009,09,12,08,08,17.60
2009,09,12,08,09,17.70
2009,09,12,08,10,17.80
2009,09,12,08,11,17.90
2009,09,12,08,12,18.10
2009,09,12,08,13,18.20
2009,09,12,08,14,18.20
2009,09,12,08,15,18.30
2009,09,12,08,16,18.40
2009,09,12,08,17,18.40
2009,09,12,08,18,18.50
2009,09,12,08,19,18.50
2009,09,12,08,20,18.60
2009,09,12,08,21,18.70
2009,09,12,08,22,18.80
2009,09,12,08,23,18.90
2009,09,12,08,24,19.00
2009,09,12,08,25,19.10
2009,09,12,08,26,19.10
2009,09,12,08,27,19.10
2009,09,12,08,28,19.20
2009,09,12,08,29,19.20
2009,09,12,08,30,19.20
2009,09,12,08,31,19.30
2009,09,12,08,32,19.40
2009,09,12,08,33,19.40
2009,09,12,08,34,19.50
2009,09,12,08,35,19.50
2009,09,12,08,36,19.60
2009,09,12,08,37,19.70
2009,09,12,08,38,19.70
2009,09,12,08,39,19.80
2009,09,12,08,40,19.80
2009,09,12,08,41,19.90
2009,09,12,08,42,19.90
2009,09,12,08,43,19.90
2009,09,12,08,44,19.90
2009,09,12,08,45,19.90
2009,09,12,08,46,20.10
2009,09,12,08,47,20.10
2009,09,12,08,48,20.10
2009,09,12,08,49,20.20
2009,09,12,08,50,20.20
2009,09,12,08,51,20.30
2009,09,12,08,52,20.40
2009,09,12,08,53,20.40
2009,09,12,08,54,20.50
2009,09,12,08,55,20.60
2009,09,12,08,56,20.60
2009,09,12,08,57,20.70
2009,09,12,08,58,20.60
2009,09,12,08,59,20.60
2009,09,12,09,00,20.60
2009,09,12,09,01,20.60
2009,09,12,09,02,20.70
2009,09,12,09,03,20.60
2009,09,12,09,04,20.60
2009,09,12,09,05,20.60
2009,09,12,09,06,20.70
2009,09,12,09,07,20.80
2009,09,12,09,08,20.80
2009,09,12,09,09,20.90
2009,09,12,09,10,20.80
2009,09,12,09,11,20.70
2009,09,12,09,12,20.70
2009,09,12,09,13,20.70
2009,09,12,09,14,20.60
2009,09,12,09,15,20.60
2009,09,12,09,16,20.60
2009,09,12,09,17,20.60
2009,09,12,09,18,20.70
2009,09,12,09,19,20.70
2009,09,12,09,20,20.70
2009,09,12,09,21,20.70
2009,09,12,09,22,20.60
2009,09,12,09,23,20.60
2009,09,12,09,24,20.70
2009,09,12,09,25,20.70
2009,09,12,09,26,20.80
2009,09,12,09,27,20.90
2009,09,12,09,28,20.90
2009,09,12,09,29,21.00
2009,09,12,09,30,21.00
2009,09,12,09,31,21.10
2009,09,12,09,32,21.10
2009,09,12,09,33,21.20
2009,09,12,09,34,21.20
2009,09,12,09,35,21.30
2009,09,12,09,36,21.30
2009,09,12,09,37,21.30
2009,09,12,09,38,21.40
2009,09,12,09,39,21.50
2009,09,12,09,40,21.60
2009,09,12,09,41,21.60
2009,09,12,09,42,21.70
2009,09,12,09,43,21.70
2009,09,12,09,44,21.70
2009,09,12,09,45,21.80
2009,09,12,09,46,21.90
2009,09,12,09,47,22.00
2009,09,12,09,48,22.10
2009,09,12,09,49,22.20
2009,09,12,09,50,22.30
2009,09,12,09,51,22.40
2009,09,12,09,52,22.50
2009,09,12,09,53,22.50
2009,09,12,09,54,22.60
2009,09,12,09,55,22.50
2009,09,12,09,56,22.50
2009,09,12,09,57,22.50
2009,09,12,09,58,22.50
2009,09,12,09,59,22.60
2009,09,12,10,00,22.60
2009,09,12,10,01,22.60
2009,09,12,10,02,22.50
2009,09,12,10,03,22.40
2009,09,12,10,04,22.40
2009,09,12,10,05,22.40
2009,09,12,10,06,22.50
2009,09,12,10,07,22.40
2009,09,12,10,08,22.40
2009,09,12,10,09,22.40
2009,09,12,10,10,22.40
2009,09,12,10,11,22.50
2009,09,12,10,12,22.50
2009,09,12,10,13,22.40
2009,09,12,10,14,22.40
2009,09,12,10,15,22.40
2009,09,12,10,16,22.40
2009,09,12,10,17,22.30
2009,09,12,10,18,22.30
2009,09,12,10,19,22.30
2009,09,12,10,20,22.40
2009,09,12,10,21,22.50
2009,09,12,10,22,22.70
2009,09,12,10,23,22.70
2009,09,12,10,24,22.80
2009,09,12,10,25,22.90
2009,09,12,10,26,23.00
2009,09,12,10,27,23.20
2009,09,12,10,28,23.30
2009,09,12,10,29,23.30
2009,09,12,10,30,23.30
2009,09,12,10,31,23.40
2009,09,12,10,32,23.60
2009,09,12,10,33,23.70
2009,09,12,10,34,23.70
2009,09,12,10,35,23.60
2009,09,12,10,36,23.40
2009,09,12,10,37,23.40
2009,09,12,10,38,23.30
2009,09,12,10,39,23.30
2009,09,12,10,40,23.50
2009,09,12,10,41,23.60
2009,09,12,10,42,23.50
2009,09,12,10,43,23.40
2009,09,12,10,44,23.50
2009,09,12,10,45,23.60
2009,09,12,10,46,23.70
2009,09,12,10,47,23.70
2009,09,12,10,48,23.90
2009,09,12,10,49,24.10
2009,09,12,10,50,24.30
2009,09,12,10,51,24.40
2009,09,12,10,52,24.50
2009,09,12,10,53,24.50
2009,09,12,10,54,24.60
2009,09,12,10,55,24.60
2009,09,12,10,56,24.60
2009,09,12,10,57,24.70
2009,09,12,10,58,24.80
2009,09,12,10,59,24.90
2009,09,12,11,00,24.90
2009,09,12,11,01,24.60
2009,09,12,11,02,24.20
2009,09,12,11,03,24.00
2009,09,12,11,04,23.80
2009,09,12,11,05,23.60
2009,09,12,11,06,23.20
2009,09,12,11,07,22.80
2009,09,12,11,08,22.60
2009,09,12,11,09,22.40
2009,09,12,11,10,22.30
2009,09,12,11,11,22.20
2009,09,12,11,12,22.20
2009,09,12,11,13,22.20
2009,09,12,11,14,22.10
2009,09,12,11,15,22.10
2009,09,12,11,16,22.00
2009,09,12,11,17,22.00
2009,09,12,11,18,22.00
2009,09,12,11,19,21.90
2009,09,12,11,20,21.80
2009,09,12,11,21,21.80
2009,09,12,11,22,21.70
2009,09,12,11,23,21.60
2009,09,12,11,24,21.60
2009,09,12,11,25,21.60
2009,09,12,11,26,21.60
2009,09,12,11,27,21.70
2009,09,12,11,28,21.70
2009,09,12,11,29,21.80
2009,09,12,11,30,21.90
2009,09,12,11,31,22.00
2009,09,12,11,32,22.10
2009,09,12,11,33,22.20
2009,09,12,11,34,22.30
2009,09,12,11,35,22.40
2009,09,12,11,36,22.50
2009,09,12,11,37,22.60
2009,09,12,11,38,22.80
2009,09,12,11,39,22.90
2009,09,12,11,40,23.00
2009,09,12,11,41,23.10
2009,09,12,11,42,23.20
2009,09,12,11,43,23.00
2009,09,12,11,44,22.80
2009,09,12,11,45,22.50
2009,09,12,11,46,22.30
2009,09,12,11,47,22.10
2009,09,12,11,48,21.70
2009,09,12,11,49,21.50
2009,09,12,11,50,21.30
2009,09,12,11,51,21.30
2009,09,12,11,52,21.50
2009,09,12,11,53,21.60
2009,09,12,11,54,21.70
2009,09,12,11,55,21.80
2009,09,12,11,56,21.90
2009,09,12,11,57,22.00
2009,09,12,11,58,22.10
2009,09,12,11,59,22.20
2009,09,12,12,00,22.30
2009,09,12,12,01,22.30
2009,09,12,12,02,22.30
2009,09,12,12,03,22.30
2009,09,12,12,04,22.30
2009,09,12,12,05,22.30
2009,09,12,12,06,22.20
2009,09,12,12,07,22.30
2009,09,12,12,08,22.40
2009,09,12,12,09,22.50
2009,09,12,12,10,22.50
2009,09,12,12,11,22.60
2009,09,12,12,12,22.70
2009,09,12,12,13,22.70
2009,09,12,12,14,22.70
2009,09,12,12,15,22.70
2009,09,12,12,16,22.80
2009,09,12,12,17,22.80
2009,09,12,12,18,22.80
2009,09,12,12,19,22.70
2009,09,12,12,20,22.60
2009,09,12,12,21,22.60
2009,09,12,12,22,22.60
2009,09,12,12,23,22.60
2009,09,12,12,24,22.60
2009,09,12,12,25,22.50
2009,09,12,12,26,22.50
2009,09,12,12,27,22.60
2009,09,12,12,28,22.60
2009,09,12,12,29,22.50
2009,09,12,12,30,22.40
2009,09,12,12,31,22.40
2009,09,12,12,32,22.40
2009,09,12,12,33,22.40
2009,09,12,12,34,22.50
2009,09,12,12,35,22.60
2009,09,12,12,36,22.70
2009,09,12,12,37,22.80
2009,09,12,12,38,22.80
2009,09,12,12,39,22.80
2009,09,12,12,40,22.80
2009,09,12,12,41,22.90
2009,09,12,12,42,22.90
2009,09,12,12,43,22.90
2009,09,12,12,44,22.90
2009,09,12,12,45,22.90
2009,09,12,12,46,22.90
2009,09,12,12,47,22.90
2009,09,12,12,48,22.90
2009,09,12,12,49,23.10
2009,09,12,12,50,23.10
2009,09,12,12,51,23.20
2009,09,12,12,52,23.20
2009,09,12,12,53,23.30
2009,09,12,12,54,23.50
2009,09,12,12,55,23.70
2009,09,12,12,56,23.80
2009,09,12,12,57,24.00
2009,09,12,12,58,24.10
2009,09,12,12,59,24.10
2009,09,12,13,00,24.20
2009,09,12,13,01,24.20
2009,09,12,13,02,24.20
2009,09,12,13,03,24.20
2009,09,12,13,04,24.20
2009,09,12,13,05,24.10
2009,09,12,13,06,24.10
2009,09,12,13,07,24.10
2009,09,12,13,08,24.10
2009,09,12,13,09,24.10
2009,09,12,13,10,24.10
2009,09,12,13,11,24.10
2009,09,12,13,12,24.10
2009,09,12,13,13,24.10
2009,09,12,13,14,24.10
2009,09,12,13,15,24.10
2009,09,12,13,16,24.00
2009,09,12,13,17,23.80
2009,09,12,13,18,23.70
2009,09,12,13,19,23.60
2009,09,12,13,20,23.60
2009,09,12,13,21,23.50
2009,09,12,13,22,23.40
2009,09,12,13,23,23.30
2009,09,12,13,24,23.30
2009,09,12,13,25,23.30
2009,09,12,13,26,23.30
2009,09,12,13,27,23.20
2009,09,12,13,28,23.10
2009,09,12,13,29,23.10
2009,09,12,13,30,23.20
2009,09,12,13,31,23.20
2009,09,12,13,32,23.20
2009,09,12,13,33,23.20
2009,09,12,13,34,23.20
2009,09,12,13,35,23.30
2009,09,12,13,36,23.40
2009,09,12,13,37,23.50
2009,09,12,13,38,23.60
2009,09,12,13,39,23.60
2009,09,12,13,40,23.70
2009,09,12,13,41,23.70
2009,09,12,13,42,23.70
2009,09,12,13,43,23.70
2009,09,12,13,44,23.70
2009,09,12,13,45,23.60
2009,09,12,13,46,23.70
2009,09,12,13,47,23.70
2009,09,12,13,48,23.70
2009,09,12,13,49,23.70
2009,09,12,13,50,23.60
2009,09,12,13,51,23.60
2009,09,12,13,52,23.60
2009,09,12,13,53,23.60
2009,09,12,13,54,23.60
2009,09,12,13,55,23.60
2009,09,12,13,56,23.70
2009,09,12,13,57,23.80
2009,09,12,13,58,23.80
2009,09,12,13,59,23.90
2009,09,12,14,00,24.00
2009,09,12,14,01,24.10
2009,09,12,14,02,24.10
2009,09,12,14,03,24.20
2009,09,12,14,04,24.10
2009,09,12,14,05,24.10
2009,09,12,14,06,24.10
2009,09,12,14,07,24.20
2009,09,12,14,08,24.30
2009,09,12,14,09,24.40
2009,09,12,14,10,24.50
2009,09,12,14,11,24.50
2009,09,12,14,12,24.60
2009,09,12,14,13,24.60
2009,09,12,14,14,24.70
2009,09,12,14,15,24.70
2009,09,12,14,16,24.70
2009,09,12,14,17,24.70
2009,09,12,14,18,24.70
2009,09,12,14,19,24.80
2009,09,12,14,20,24.80
2009,09,12,14,21,24.80
2009,09,12,14,22,24.80
2009,09,12,14,23,24.80
2009,09,12,14,24,24.80
2009,09,12,14,25,24.80
2009,09,12,14,26,24.90
2009,09,12,14,27,25.00
2009,09,12,14,28,25.10
2009,09,12,14,29,25.30
2009,09,12,14,30,25.40
2009,09,12,14,31,25.60
2009,09,12,14,32,25.70
2009,09,12,14,33,25.80
2009,09,12,14,34,26.00
2009,09,12,14,35,26.10
2009,09,12,14,36,26.20
2009,09,12,14,37,26.30
2009,09,12,14,38,26.40
2009,09,12,14,39,26.50
2009,09,12,14,40,26.60
2009,09,12,14,41,26.60
2009,09,12,14,42,26.60
2009,09,12,14,43,26.60
2009,09,12,14,44,26.70
2009,09,12,14,45,26.70
2009,09,12,14,46,26.70
2009,09,12,14,47,26.70
2009,09,12,14,48,26.80
2009,09,12,14,49,26.80
2009,09,12,14,50,26.90
2009,09,12,14,51,26.90
2009,09,12,14,52,26.90
2009,09,12,14,53,27.00
2009,09,12,14,54,27.10
2009,09,12,14,55,27.10
2009,09,12,14,56,27.20
2009,09,12,14,57,27.20
2009,09,12,14,58,27.00
2009,09,12,14,59,26.90
2009,09,12,15,00,26.80
2009,09,12,15,01,26.80
2009,09,12,15,02,26.70
2009,09,12,15,03,26.80
2009,09,12,15,04,26.80
2009,09,12,15,05,26.80
2009,09,12,15,06,26.90
2009,09,12,15,07,26.90
2009,09,12,15,08,26.90
2009,09,12,15,09,27.10
2009,09,12,15,10,27.10
2009,09,12,15,11,27.20
2009,09,12,15,12,27.30
2009,09,12,15,13,27.30
2009,09,12,15,14,27.40
2009,09,12,15,15,27.40
2009,09,12,15,16,27.50
2009,09,12,15,17,27.60
2009,09,12,15,18,27.60
2009,09,12,15,19,27.60
2009,09,12,15,20,27.60
2009,09,12,15,21,27.60
2009,09,12,15,22,27.60
2009,09,12,15,23,27.50
2009,09,12,15,24,27.30
2009,09,12,15,25,27.30
2009,09,12,15,26,27.30
2009,09,12,15,27,27.30
2009,09,12,15,28,27.30
2009,09,12,15,29,27.30
2009,09,12,15,30,27.30
2009,09,12,15,31,27.30
2009,09,12,15,32,27.30
2009,09,12,15,33,27.30
2009,09,12,15,34,27.30
2009,09,12,15,35,27.30
2009,09,12,15,36,27.40
2009,09,12,15,37,27.40
2009,09,12,15,38,27.40
2009,09,12,15,39,27.40
2009,09,12,15,40,27.40
2009,09,12,15,41,27.40
2009,09,12,15,42,27.40
2009,09,12,15,43,27.40
2009,09,12,15,44,27.40
2009,09,12,15,45,27.30
2009,09,12,15,46,27.30
2009,09,12,15,47,27.30
2009,09,12,15,48,27.30
2009,09,12,15,49,27.30
2009,09,12,15,50,27.30
2009,09,12,15,51,27.30
2009,09,12,15,52,27.30
2009,09,12,15,53,27.30
2009,09,12,15,54,27.30
2009,09,12,15,55,27.40
2009,09,12,15,56,27.50
2009,09,12,15,57,27.60
2009,09,12,15,58,27.70
2009,09,12,15,59,27.80
2009,09,12,16,00,27.80
2009,09,12,16,01,27.80
2009,09,12,16,02,27.70
2009,09,12,16,03,27.70
2009,09,12,16,04,27.60
2009,09,12,16,05,27.60
2009,09,12,16,06,27.60
2009,09,12,16,07,27.60
2009,09,12,16,08,27.60
2009,09,12,16,09,27.70
2009,09,12,16,10,27.70
2009,09,12,16,11,27.70
2009,09,12,16,12,27.80
2009,09,12,16,13,27.80
2009,09,12,16,14,27.80
2009,09,12,16,15,27.80
2009,09,12,16,16,27.70
2009,09,12,16,17,27.70
2009,09,12,16,18,27.60
2009,09,12,16,19,27.40
2009,09,12,16,20,27.40
2009,09,12,16,21,27.30
2009,09,12,16,22,27.30
2009,09,12,16,23,27.30
2009,09,12,16,24,27.30
2009,09,12,16,25,27.30
2009,09,12,16,26,27.30
2009,09,12,16,27,27.30
2009,09,12,16,28,27.20
2009,09,12,16,29,27.10
2009,09,12,16,30,27.00
2009,09,12,16,31,26.90
2009,09,12,16,32,26.80
2009,09,12,16,33,26.80
2009,09,12,16,34,26.80
2009,09,12,16,35,26.80
2009,09,12,16,36,26.80
2009,09,12,16,37,26.80
2009,09,12,16,38,26.70
2009,09,12,16,39,26.70
2009,09,12,16,40,26.70
2009,09,12,16,41,26.70
2009,09,12,16,42,26.60
2009,09,12,16,43,26.60
2009,09,12,16,44,26.60
2009,09,12,16,45,26.70
2009,09,12,16,46,26.70
2009,09,12,16,47,26.60
2009,09,12,16,48,26.60
2009,09,12,16,49,26.60
2009,09,12,16,50,26.50
2009,09,12,16,51,26.40
2009,09,12,16,52,26.40
2009,09,12,16,53,26.30
2009,09,12,16,54,26.30
2009,09,12,16,55,26.20
2009,09,12,16,56,26.10
2009,09,12,16,57,26.10
2009,09,12,16,58,26.00
2009,09,12,16,59,26.00
2009,09,12,17,00,25.90
2009,09,12,17,01,25.80
2009,09,12,17,02,25.70
2009,09,12,17,03,25.60
2009,09,12,17,04,25.40
2009,09,12,17,05,25.30
2009,09,12,17,06,25.20
2009,09,12,17,07,25.00
2009,09,12,17,08,24.90
2009,09,12,17,09,24.70
2009,09,12,17,10,24.60
2009,09,12,17,11,24.40
2009,09,12,17,12,24.30
2009,09,12,17,13,24.20
2009,09,12,17,14,24.10
2009,09,12,17,15,24.00
2009,09,12,17,16,23.90
2009,09,12,17,17,23.80
2009,09,12,17,18,23.70
2009,09,12,17,19,23.70